Location: Moscow
(55.7500°N, 37.5830°E)
Time: 13:57:56
(UTC+03:00)

Vanguard 1 - Pass Details

Date: 05 December 2021
Orbit: 652 x 3830 km, 34.2° (Epoch: 25 January)

Event Time Altitude Azimuth Distance (km) Brightness Sun altitude
Exits shadow 06:35:55 10° 258° (WSW) 6,432 13.7 -16.2°
Maximum altitude 06:45:48 17° 228° (SW) 5,191 13.4 -14.9°
Drops below altitude 10° 06:53:54 10° 195° (SSW) 4,976 13.7 -13.8°
Sets 06:59:04 0° 176° (S) 5,396 14.2 -13.1°
